Date;CO2
;[ppm]
01/01/2008 00:00;406.595
01/02/2008 00:00;412.637
01/03/2008 00:00;401.130
01/04/2008 00:00;403.711
01/05/2008 00:00;392.586
01/06/2008 00:00;396.959
01/07/2008 00:00;394.029
01/08/2008 00:00;391.920
01/09/2008 00:00;395.445
01/10/2008 00:00;408.505
01/11/2008 00:00;418.074
01/12/2008 00:00;419.740
01/01/2009 00:00;441.474
01/02/2009 00:00;420.203
01/03/2009 00:00;407.709
01/04/2009 00:00;408.063
01/05/2009 00:00;401.317
01/06/2009 00:00;395.472
01/07/2009 00:00;396.909
01/08/2009 00:00;397.622
01/09/2009 00:00;402.436
01/10/2009 00:00;408.949
01/11/2009 00:00;410.618
01/12/2009 00:00;409.400
01/01/2010 00:00;421.563
01/02/2010 00:00;415.522
01/03/2010 00:00;409.788
01/04/2010 00:00;406.508
01/05/2010 00:00;403.659
01/06/2010 00:00;399.215
01/07/2010 00:00;400.875
01/08/2010 00:00;396.535
01/09/2010 00:00;400.947
01/10/2010 00:00;413.736
01/11/2010 00:00;411.419
01/12/2010 00:00;430.959
01/01/2011 00:00;416.251
01/02/2011 00:00;420.665
01/03/2011 00:00;415.465
01/04/2011 00:00;408.899
01/05/2011 00:00;401.775
01/06/2011 00:00;400.948
01/07/2011 00:00;399.026
01/08/2011 00:00;399.459
01/09/2011 00:00;405.351
01/10/2011 00:00;413.526
01/11/2011 00:00;450.751
01/12/2011 00:00;408.158
01/01/2012 00:00;415.477
01/02/2012 00:00;419.046
01/03/2012 00:00;420.028
01/04/2012 00:00;410.293
01/05/2012 00:00;407.023
01/06/2012 00:00;404.319
01/07/2012 00:00;403.202
01/08/2012 00:00;401.680
01/09/2012 00:00;403.261
01/10/2012 00:00;417.918
01/11/2012 00:00;424.713
01/12/2012 00:00;416.664
01/01/2013 00:00;422.250
01/02/2013 00:00;421.847
01/03/2013 00:00;419.467
01/04/2013 00:00;414.557
01/05/2013 00:00;408.903
01/06/2013 00:00;406.753
01/07/2013 00:00;405.049
01/08/2013 00:00;404.897
01/09/2013 00:00;406.880
01/10/2013 00:00;416.303
01/11/2013 00:00;421.516
01/12/2013 00:00;425.825
01/01/2014 00:00;425.905
01/02/2014 00:00;417.098
01/03/2014 00:00;422.399
01/04/2014 00:00;417.896
01/05/2014 00:00;409.262
01/06/2014 00:00;408.831
01/07/2014 00:00;409.477
01/08/2014 00:00;403.854
01/09/2014 00:00;417.470
01/10/2014 00:00;423.984
01/11/2014 00:00;438.923
01/12/2014 00:00;423.818
01/01/2015 00:00;424.173
01/02/2015 00:00;429.091
01/03/2015 00:00;425.993
01/04/2015 00:00;418.514
01/05/2015 00:00;413.423
01/06/2015 00:00;409.962
01/07/2015 00:00;408.590
01/08/2015 00:00;412.319
01/09/2015 00:00;406.468
01/10/2015 00:00;418.371
01/11/2015 00:00;427.509
01/12/2015 00:00;434.176
01/01/2016 00:00;426.051
01/02/2016 00:00;419.693
01/03/2016 00:00;423.355
01/04/2016 00:00;420.891
01/05/2016 00:00;415.638
01/06/2016 00:00;415.257
01/07/2016 00:00;416.693
01/08/2016 00:00;412.991
01/09/2016 00:00;421.983
01/10/2016 00:00;433.566
01/11/2016 00:00;435.921
01/12/2016 00:00;447.430
01/01/2017 00:00;441.123
01/02/2017 00:00;433.005
01/03/2017 00:00;423.894
01/04/2017 00:00;425.977
01/05/2017 00:00;422.063
01/06/2017 00:00;418.730
01/07/2017 00:00;416.470
01/08/2017 00:00;420.364
01/09/2017 00:00;419.025
01/10/2017 00:00;428.781
01/11/2017 00:00;433.230
01/12/2017 00:00;436.923
01/01/2018 00:00;429.243
01/02/2018 00:00;432.312
01/03/2018 00:00;431.261
01/04/2018 00:00;429.636
01/05/2018 00:00;420.223
01/06/2018 00:00;418.270
01/07/2018 00:00;423.250
01/08/2018 00:00;418.963
01/09/2018 00:00;421.674
01/10/2018 00:00;433.027
01/11/2018 00:00;441.378
01/12/2018 00:00;434.191
01/01/2019 00:00;432.028
01/02/2019 00:00;445.729
01/03/2019 00:00;428.510
01/04/2019 00:00;418.598
